Main page
METAR-TAF:

METAR-TAF

Airports :

Boulmer, England

RAF Boulmer

latitude: 55-25-19N, longitude: 1-36-12W, elevation: 24 m

Current weather observation

The report was made 51 minutes ago, at 01:50 UTC
Wind 14 kt from the North/Northwest
Temperature 13°C
Humidity 100%
Pressure 1013 hPa
Visibility: 7000 m
mist

METAR: EGQM 240150Z AUTO 33014KT 7000 BR OVC005/// 13/13 Q1013

Time: 03:41 (02:41 UTC)


TAF: missing

Weather observations and forecasts of more than 4000 airports (METAR and TAF reports).

The available stations are represented by yellow and red dots on the map.

Hover mouse over dot to see the name of the station.

Then click to see weather observations and forecasts.

To change the map : click on the green buttons with a black cross to zoom in, on the green button with a dash to zoom out, or on the green arrows for adjacent maps.


METAR-TAF: